Flag for Germany Weather past 2 weeks in Steinfurt, North Rhine-Westphalia, Germany

Now
45 °F

Quite cool.


Feels Like: 41 °F
Forecast: 40 / 48 °F
Wind: 7 mph from Southeast

Location: Rheine-Bentlage

Current Time: Feb 28, 2015 at 6:01:14 PM

Latest Report: Feb 28, 2015 at 5:20 PM


Visibility: N/A

Pressure: 29.92 "Hg

Humidity: 53%

Dew point: 28 °F

Location of SteinfurtLocation

Historic Weather in Steinfurt — Graph

°F

Steinfurt temperature yesterday

Maximum temperature yesterday: 45 °F (at 1:20 PM)
Minimum temperature yesterday: 34 °F (at 11:20 PM)
Average temperature yesterday: 42 °F

Past Weeks' High & Low Weather Summary

 TemperatureHumidityPressure
High52 °F (Feb 14, 3:20 PM)100% (Feb 16, 5:20 AM)30.74 "Hg (Feb 16, 5:20 AM)
Low27 °F (Feb 17, 3:20 AM)50% (Feb 28, 4:20 PM)29.30 "Hg (Feb 21, 5:20 AM)
Average38 °F85%29.94 "Hg
* Reported Feb 13 4:20 PM — Feb 28 4:20 PM, Steinfurt, Weather by CustomWeather, © 2015

Note: Actual official high and low records may vary slightly from our data, if they occured in-between our weather recording intervals... More about our weather records

Advertising

Steinfurt weather history for previous 24 hours

 ConditionsComfort  
Time TempWeatherWind HumidityBarometerVisibility
4:20 PM
Sat, Feb 28
46 °FCool.10 mph50%29.95 "HgN/A
3:20 PM46 °FCool.7 mph53%29.98 "HgN/A
2:20 PM46 °FCool.10 mph53%30.01 "HgN/A
1:20 PM45 °FQuite cool.9 mph53%30.04 "HgN/A
12:20 PM43 °FQuite cool.9 mph66%30.07 "HgN/A
11:20 AM41 °FQuite cool.9 mph70%30.07 "HgN/A
10:20 AM39 °FChilly.8 mph75%30.09 "HgN/A
9:20 AM36 °FChilly.6 mph87%30.09 "HgN/A
8:20 AM32 °FChilly.2 mph93%30.12 "HgN/A
7:20 AM30 °FChilly.2 mph93%30.09 "HgN/A
6:20 AM32 °FChilly.3 mph93%30.09 "HgN/A
5:20 AM30 °FChilly.3 mph100%30.09 "HgN/A
4:20 AM32 °FChilly.3 mph93%30.12 "HgN/A
3:20 AM32 °FChilly.3 mph93%30.12 "HgN/A
2:20 AM32 °FChilly.3 mph93%30.12 "HgN/A
1:20 AM32 °FChilly.2 mph93%30.12 "HgN/A
12:20 AM32 °FChilly.2 mph93%30.12 "HgN/A
11:20 PM
Fri, Feb 27
34 °FChilly.3 mph87%30.12 "HgN/A
10:20 PM37 °FChilly.6 mph81%30.12 "HgN/A
9:20 PM39 °FChilly.6 mph75%30.12 "HgN/A
8:20 PM41 °FQuite cool.7 mph70%30.09 "HgN/A
7:20 PM41 °FQuite cool.6 mph70%30.09 "HgN/A
6:20 PM43 °FQuite cool.2 mph66%30.07 "HgN/A
Weather by CustomWeather, © 2015

See weather overviewHow to use our weather pages